When you browse on this site, cookies collect data to enhance your experience and personalize the content and advertising you see.
Visit our Privacy Policy to learn more. By continuing to use the site, you agree to this use of cookies and data.
  • In France
  • List of Countries
  • For 7 days
  • Water Temperature
  • Satellite Maps
  • Weather Map
  • Weather Widgets
  • user-avatar
    Login

    Hourly Weather Abovyan

    Today, 16 February, Saturday

    Time Temperature Precipitation Wind Pressure Humidity
    00:00 +1°C° 0 mm 2 mps 668 mmHg 66%
    01:00 +1°C° 0 mm 2 mps 668 mmHg 66%
    02:00 +1°C° 0 mm 2 mps 668 mmHg 67%
    03:00 +1°C° 0 mm 2 mps 668 mmHg 68%
    04:00 +1°C° 0.1 mm 2 mps 668 mmHg 68%
    05:00 -1°C° 0.1 mm 2 mps 668 mmHg 69%
    06:00 -1°C° 0.1 mm 2 mps 668 mmHg 69%
    07:00 +2°C° 0 mm 1 mps 669 mmHg 67%
    08:00 +2°C° 0 mm 1 mps 669 mmHg 64%
    09:00 +3°C° 0 mm 1 mps 670 mmHg 61%
    10:00 +4°C° 0 mm 1 mps 669 mmHg 58%
    11:00 +4°C° 0 mm 2 mps 669 mmHg 56%
    12:00 +5°C° 0 mm 2 mps 669 mmHg 53%
    13:00 +5°C° 0.1 mm 2 mps 669 mmHg 53%
    14:00 +5°C° 0.1 mm 2 mps 669 mmHg 52%
    15:00 +5°C° 0.1 mm 3 mps 669 mmHg 51%
    16:00 +5°C° 0.1 mm 2 mps 669 mmHg 53%
    17:00 +4°C° 0.1 mm 2 mps 669 mmHg 56%
    18:00 +4°C° 0.1 mm 2 mps 670 mmHg 58%
    19:00 +3°C° 0.2 mm 2 mps 670 mmHg 61%
    20:00 +3°C° 0.2 mm 2 mps 670 mmHg 63%
    21:00 +2°C° 0.2 mm 2 mps 671 mmHg 65%
    22:00 +2°C° 0.1 mm 2 mps 671 mmHg 66%
    23:00 +2°C° 0.1 mm 1 mps 671 mmHg 67%

    Tomorrow, 17 February, Sunday

    Time Temperature Precipitation Wind Pressure Humidity
    00:00 +2°C° 0.1 mm 1 mps 671 mmHg 68%
    01:00 +1°C° 0.1 mm 1 mps 670 mmHg 69%
    02:00 +1°C° 0.1 mm 1 mps 670 mmHg 69%
    03:00 0°C° 0.1 mm 1 mps 670 mmHg 70%
    04:00 0°C° 0 mm 1 mps 670 mmHg 70%
    05:00 -1°C° 0 mm 1 mps 670 mmHg 69%
    06:00 -1°C° 0 mm 1 mps 670 mmHg 69%
    07:00 0°C° 0 mm 1 mps 670 mmHg 65%
    08:00 0°C° 0 mm 1 mps 671 mmHg 62%
    09:00 -1°C° 0 mm 2 mps 671 mmHg 59%
    10:00 +1°C° 0 mm 2 mps 671 mmHg 56%
    11:00 +3°C° 0 mm 2 mps 671 mmHg 52%
    12:00 +3°C° 0 mm 3 mps 671 mmHg 49%
    13:00 +3°C° 0 mm 3 mps 671 mmHg 48%
    14:00 +4°C° 0 mm 3 mps 671 mmHg 48%
    15:00 +4°C° 0 mm 3 mps 671 mmHg 47%
    16:00 +3°C° 0 mm 3 mps 671 mmHg 49%
    17:00 +3°C° 0 mm 2 mps 671 mmHg 52%
    18:00 +2°C° 0 mm 2 mps 671 mmHg 54%
    19:00 +1°C° 0 mm 2 mps 671 mmHg 55%
    20:00 +2°C° 0 mm 1 mps 672 mmHg 57%
    21:00 +1°C° 0 mm 1 mps 672 mmHg 58%
    22:00 +1°C° 0 mm 1 mps 672 mmHg 59%
    23:00 0°C° 0 mm 1 mps 672 mmHg 59%

    Day after tomorrow, 18 February, Monday

    Time Temperature Precipitation Wind Pressure Humidity
    00:00 0°C° 0 mm 1 mps 672 mmHg 60%
    01:00 0°C° 0 mm 1 mps 672 mmHg 61%
    02:00 -1°C° 0 mm 1 mps 671 mmHg 61%
    03:00 -1°C° 0 mm 1 mps 671 mmHg 61%
    04:00 -1°C° 0 mm 1 mps 671 mmHg 61%
    05:00 -2°C° 0 mm 1 mps 670 mmHg 61%
    06:00 -2°C° 0 mm 1 mps 670 mmHg 61%
    07:00 -1°C° 0 mm 1 mps 670 mmHg 59%
    08:00 0°C° 0 mm 1 mps 670 mmHg 56%
    09:00 +1°C° 0 mm 1 mps 670 mmHg 54%
    10:00 +2°C° 0 mm 1 mps 670 mmHg 52%
    11:00 +2°C° 0 mm 2 mps 669 mmHg 51%
    12:00 +3°C° 0 mm 2 mps 668 mmHg 49%
    13:00 +4°C° 0 mm 2 mps 668 mmHg 48%
    14:00 +5°C° 0 mm 2 mps 668 mmHg 48%
    15:00 +4°C° 0 mm 3 mps 667 mmHg 47%
    16:00 +5°C° 0 mm 2 mps 667 mmHg 49%
    17:00 +4°C° 0 mm 2 mps 667 mmHg 51%
    18:00 +3°C° 0 mm 2 mps 667 mmHg 53%
    19:00 +3°C° 0 mm 2 mps 667 mmHg 55%
    20:00 +2°C° 0 mm 2 mps 667 mmHg 57%
    21:00 +1°C° 0 mm 2 mps 667 mmHg 59%
    22:00 +1°C° 0 mm 2 mps 667 mmHg 60%
    23:00 -1°C° 0 mm 2 mps 667 mmHg 60%

    19 February, Tuesday

    Time Temperature Precipitation Wind Pressure Humidity
    00:00 -1°C° 0 mm 2 mps 667 mmHg 61%
    01:00 -2°C° 0 mm 2 mps 667 mmHg 62%
    02:00 -2°C° 0 mm 2 mps 667 mmHg 62%
    03:00 -2°C° 0 mm 2 mps 667 mmHg 62%
    04:00 -2°C° 0 mm 2 mps 667 mmHg 63%
    05:00 -3°C° 0 mm 2 mps 667 mmHg 64%
    06:00 -3°C° 0 mm 2 mps 667 mmHg 64%
    07:00 -2°C° 0 mm 2 mps 668 mmHg 62%
    08:00 -1°C° 0 mm 2 mps 668 mmHg 59%
    09:00 +1°C° 0 mm 2 mps 669 mmHg 57%
    10:00 +2°C° 0 mm 2 mps 669 mmHg 53%
    11:00 +3°C° 0 mm 3 mps 670 mmHg 49%
    12:00 +4°C° 0 mm 3 mps 670 mmHg 46%
    13:00 +4°C° 0 mm 3 mps 670 mmHg 44%
    14:00 +4°C° 0 mm 4 mps 670 mmHg 43%
    15:00 +5°C° 0 mm 4 mps 671 mmHg 41%
    16:00 +3°C° 0 mm 3 mps 671 mmHg 43%
    17:00 +2°C° 0 mm 3 mps 672 mmHg 45%
    18:00 +1°C° 0 mm 3 mps 672 mmHg 46%
    19:00 +1°C° 0 mm 2 mps 673 mmHg 48%
    20:00 -1°C° 0 mm 2 mps 674 mmHg 51%
    21:00 -1°C° 0 mm 2 mps 675 mmHg 53%
    22:00 -2°C° 0 mm 2 mps 675 mmHg 54%
    23:00 -2°C° 0 mm 2 mps 675 mmHg 55%

    20 February, Wednesday

    Time Temperature Precipitation Wind Pressure Humidity
    00:00 -3°C° 0 mm 2 mps 676 mmHg 57%
    01:00 -3°C° 0 mm 2 mps 676 mmHg 57%
    02:00 -3°C° 0 mm 2 mps 676 mmHg 57%
    03:00 -4°C° 0 mm 2 mps 676 mmHg 57%
    04:00 -4°C° 0 mm 2 mps 676 mmHg 56%
    05:00 -4°C° 0 mm 2 mps 676 mmHg 54%
    06:00 -2°C° 0 mm 1 mps 676 mmHg 53%
    07:00 -1°C° 0 mm 1 mps 676 mmHg 50%
    08:00 0°C° 0 mm 1 mps 677 mmHg 48%
    09:00 +2°C° 0 mm 1 mps 677 mmHg 45%
    10:00 +3°C° 0 mm 1 mps 677 mmHg 43%
    11:00 +4°C° 0 mm 1 mps 677 mmHg 42%
    12:00 +4°C° 0 mm 2 mps 676 mmHg 40%
    13:00 +5°C° 0 mm 2 mps 676 mmHg 39%
    14:00 +5°C° 0 mm 2 mps 676 mmHg 38%
    15:00 +5°C° 0 mm 2 mps 675 mmHg 38%
    16:00 +4°C° 0 mm 2 mps 675 mmHg 38%
    17:00 +4°C° 0 mm 1 mps 675 mmHg 39%
    18:00 +2°C° 0 mm 1 mps 675 mmHg 40%
    19:00 +2°C° 0 mm 1 mps 676 mmHg 39%
    20:00 +1°C° 0 mm 1 mps 676 mmHg 39%
    21:00 +1°C° 0 mm 1 mps 676 mmHg 38%
    22:00 0°C° 0 mm 1 mps 676 mmHg 38%
    23:00 0°C° 0 mm 1 mps 676 mmHg 38%

    21 February, Thursday

    Time Temperature Precipitation Wind Pressure Humidity
    00:00 0°C° 0 mm 1 mps 675 mmHg 38%
    01:00 -1°C° 0 mm 1 mps 675 mmHg 39%
    02:00 -1°C° 0 mm 1 mps 675 mmHg 39%
    03:00 -1°C° 0 mm 1 mps 675 mmHg 40%
    04:00 -1°C° 0 mm 1 mps 674 mmHg 42%
    05:00 -2°C° 0 mm 1 mps 674 mmHg 43%
    06:00 -2°C° 0 mm 1 mps 674 mmHg 44%
    07:00 0°C° 0 mm 1 mps 674 mmHg 44%
    08:00 +1°C° 0 mm 1 mps 674 mmHg 43%
    09:00 +2°C° 0 mm 1 mps 675 mmHg 42%
    10:00 +3°C° 0 mm 1 mps 674 mmHg 39%
    11:00 +4°C° 0 mm 1 mps 673 mmHg 37%
    12:00 +6°C° 0 mm 1 mps 673 mmHg 34%
    13:00 +6°C° 0 mm 1 mps 673 mmHg 33%
    14:00 +6°C° 0 mm 1 mps 672 mmHg 33%
    15:00 +7°C° 0 mm 1 mps 672 mmHg 32%
    16:00 +6°C° 0 mm 1 mps 672 mmHg 32%
    17:00 +4°C° 0 mm 1 mps 672 mmHg 32%
    18:00 +2°C° 0 mm 0 mps 672 mmHg 32%
    19:00 +2°C° 0 mm 1 mps 672 mmHg 32%
    20:00 +2°C° 0 mm 1 mps 672 mmHg 31%
    21:00 +1°C° 0 mm 1 mps 673 mmHg 31%
    22:00 +1°C° 0 mm 1 mps 673 mmHg 32%
    23:00 +1°C° 0 mm 1 mps 673 mmHg 34%
    Show more